This demonstration page uses our WeatherBlox Daily Observations layout. Learn more.

Left ArrowRight Arrow

39.92423, -83.80882

Hourly Observations for November 11, 2015

Temp ( °F °C ) Dew Point ( °F °C ) Humidity (%) Winds ( mph kmh ) Pressure ( in mb ) Visibility ( mi km ) Precip ( " mm )
12:02 am 00:02 Clear with Fog 37 3 37 3 100 100 SSW 5 7 30.12 1020 0.5 0.80467 0 0
12:23 am 00:23 Clear with Mist and Fog 37 3 37 3 100 100 SSW 7 11 30.12 1020 0.75 1.207005 0 0
12:35 am 00:35 Clear with Mist and Fog 39 4 39 4 100 100 SSW 6 9 30.09 1019 1.25 2.011675 0 0
12:43 am 00:43 Clear with Mist and Fog 39 4 39 4 100 100 SSW 7 11 30.09 1019 2 3.21868 0 0
12:56 am 00:56 Clear with Mist and Fog 40 4.4 40 4.4 100 100 SSW 7 11 30.07 1018 3 4.82802 0 0
1:04 am 01:04 Clear with Mist and Fog 39 4 39 4 100 100 SSW 7 11 30.09 1019 2 3.21868 0 0
1:21 am 01:21 Clear with Mist and Fog 39 4 39 4 100 100 SSW 5 7 30.09 1019 1.75 2.816345 0 0
1:41 am 01:41 Clear with Mist and Fog 37 3 37 3 100 100 SSW 6 9 30.12 1020 1.25 2.011675 0 0
1:48 am 01:48 Clear with Mist and Fog 39 4 39 4 100 100 SSW 7 11 30.09 1019 1.5 2.41401 0 0
1:56 am 01:56 Clear with Mist and Fog 38 3.3 38 3.3 100 100 SSW 7 11 30.07 1018 1 1.60934 0 0
2:04 am 02:04 Clear with Mist and Fog 37 3 37 3 100 100 SSW 6 9 30.12 1020 0.75 1.207005 0 0
2:21 am 02:21 Clear with Fog 37 3 37 3 100 100 SSW 5 7 30.12 1020 0.5 0.80467 0 0
2:38 am 02:38 Clear with Fog 37 3 37 3 100 100 SSW 5 7 30.12 1020 0.25 0.402335 0 0
2:56 am 02:56 Clear with Fog 37 2.7 37 2.7 100 100 SSW 5 7 30.07 1018 0.25 0.402335 0 0
3:32 am 03:32 Clear with Fog 37 3 37 3 100 100 SSW 6 9 30.12 1020 0.5 0.80467 0 0
3:39 am 03:39 Clear with Mist and Fog 37 3 37 3 100 100 SSW 6 9 30.12 1020 0.75 1.207005 0 0
3:47 am 03:47 Clear with Fog 37 3 37 3 100 100 SSW 6 9 30.12 1020 0.5 0.80467 0 0
3:56 am 03:56 Clear with Fog 37 2.7 37 2.7 100 100 SSW 6 9 30.07 1018 0.5 0.80467 0 0
4:04 am 04:04 Clear with Mist and Fog 37 3 37 3 100 100 SSW 6 9 30.12 1020 0.75 1.207005 0 0
4:13 am 04:13 Clear with Fog 37 3 37 3 100 100 S 6 9 30.12 1020 0.5 0.80467 0 0
4:26 am 04:26 Clear with Mist and Fog 37 3 37 3 100 100 S 5 7 30.12 1020 1 1.60934 0 0
4:29 am 04:29 Clear with Mist and Fog 37 3 37 3 100 100 S 3 6 30.12 1020 1.5 2.41401 0 0
4:35 am 04:35 Clear with Mist and Fog 37 3 37 3 100 100 S 3 6 30.12 1020 1 1.60934 0 0
4:39 am 04:39 Clear with Fog 36 2 36 2 100 100 Calm 30.12 1020 0.5 0.80467 0 0
4:48 am 04:48 Clear with Fog 36 2 36 2 100 100 Calm 30.12 1020 0.25 0.402335 0 0
4:56 am 04:56 Clear with Fog 34 1.1 34 1.1 100 100 Calm 30.08 1019 0.25 0.402335 0 0
5:30 am 05:30 Clear with Fog 32 0 32 0 100 100 Calm 30.12 1020 5 8.0467 0 0
5:43 am 05:43 Clear with Fog 32 0 32 0 100 100 Calm 30.12 1020 0.25 0.402335 0 0
5:56 am 05:56 Clear with Freezing Fog 31 -0.5 31 -0.5 100 100 Calm 30.09 1019 0.25 0.402335 0 0
6:11 am 06:11 Clear with Freezing Fog 30 -1 30 -1 100 100 Calm 30.12 1020 5 8.0467 0 0
6:24 am 06:24 Clear with Freezing Fog 30 -1 30 -1 100 100 Calm 30.15 1021 0.25 0.402335 0 0
6:56 am 06:56 Clear with Freezing Fog 30 -1.1 30 -1.1 100 100 Calm 30.1 1019 0.25 0.402335 0 0
7:05 am 07:05 Clear with Freezing Fog 30 -1 30 -1 100 100 Calm 30.15 1021 5 8.0467 0 0
7:56 am 07:56 Sunny with Freezing Fog 30 -1.1 30 -1.1 100 100 E 3 6 30.11 1020 5 8.0467 0 0
8:44 am 08:44 Sunny with Fog 32 0 32 0 100 100 SSE 3 6 30.15 1021 0.5 0.80467 0 0
8:56 am 08:56 Sunny with Mist and Fog 35 1.6 35 1.6 100 100 SSE 5 7 30.12 1020 1.75 2.816345 0 0
9:01 am 09:01 Sunny with Mist and Fog 37 3 37 3 100 100 S 5 7 30.15 1021 3 4.82802 0 0
9:56 am 09:56 Sunny 44 6.6 44 6.6 100 100 SSW 6 9 30.11 1020 10 16.0934 0 0
10:56 am 10:56 Sunny 51 10.5 44 6.6 77 77 S 9 15 30.09 1019 10 16.0934 0 0
11:56 am 11:56 Sunny 54 12.2 43 6.1 67 67 SSE 9 15 30.07 1018 10 16.0934 0 0
12:56 pm 12:56 Sunny 56 13.3 41 5 57 57 SSE 9 15 30.04 1017 10 16.0934 0 0
1:56 pm 13:56 Sunny 56 13.3 42 5.5 59 59 S 9 15 30.01 1016 10 16.0934 0 0
2:56 pm 14:56 Sunny 57 13.8 42 5.5 58 58 SSE 9 15 29.99 1016 10 16.0934 0 0
3:56 pm 15:56 Sunny 57 13.8 42 5.5 58 58 SSE 13 20 29.98 1015 10 16.0934 0 0
4:56 pm 16:56 Sunny 53 11.6 43 6.1 69 69 SE 10 17 29.96 1014 10 16.0934 0 0
5:56 pm 17:56 Clear 50 10 43 6.1 77 77 SE 9 15 29.94 1014 10 16.0934 0 0
6:56 pm 18:56 Clear 48 8.8 42 5.5 80 80 SE 9 15 29.91 1013 10 16.0934 0 0
7:56 pm 19:56 Clear 49 9.4 43 6.1 80 80 SSE 12 19 29.91 1013 10 16.0934 0 0
8:56 pm 20:56 Clear 49 9.4 42 5.5 77 77 ESE 8 13 29.87 1011 10 16.0934 0 0
9:56 pm 21:56 Clear 49 9.4 42 5.5 77 77 SE 12 19 29.8 1009 10 16.0934 0 0
10:56 pm 22:56 Mostly Clear 51 10.5 40 4.4 66 66 SE 16 26 29.75 1008 10 16.0934 0 0
11:28 pm 23:28 Mostly Cloudy with Light Rain 48 9 43 6 82 82 SE 9 15 29.77 1008 5 8.0467 0.03 0.762
11:56 pm 23:56 Mostly Cloudy with Light Rain 48 8.8 43 6.1 83 83 SE 12 19 29.72 1007 10 16.0934 0.08 2.032

Powered by AerisWeather